Probability
0 2 6 6 5 4 3 3 2 3 5 6 4 1 0 0 0 0 0 0 0 0 0 0 0 0 0 0 0 2 4 4 3 3 3 2 1 1 1 1 0 1 3
0 2 5 6 5 4 3 4 4 5 5 5 4 2 0 0 0 0 0 0 0 0 0 0 0 0 0 0 1 3 5 5 4 3 3 2 1 0 0 0 0 1 3
1 3 6 6 5 3 3 4 6 6 5 4 4 2 1 0 0 0 0 0 0 0 0 0 0 0 0 0 1 3 5 5 5 3 2 1 0 0 0 0 0 1 2
2 4 7 7 5 3 3 5 7 7 6 4 3 2 1 0 0 0 1 1 1 1 1 0 0 0 0 1 2 3 4 5 4 2 1 0 0 0 0 0 0 0 1
3 5 8 9 7 5 5 7 8 8 7 5 3 1 0 0 0 0 1 1 1 0 1 1 0 0 1 2 3 3 3 4 3 1 0 0 0 0 0 0 0 0 0
3 5 9 10 9 7 8 8 8 8 7 5 3 1 0 0 0 0 0 0 0 0 0 0 0 0 1 2 2 1 1 2 1 0 0 0 0 0 0 0 0 0 0
3 5 9 12 11 10 10 10 9 7 6 4 2 1 0 0 0 0 0 0 0 0 0 0 0 0 0 1 1 1 0 0 0 0 0 0 0 0 0 0 0 0 0
3 4 8 11 12 10 10 12 11 8 6 5 2 1 0 0 0 0 0 0 0 0 0 0 0 0 0 0 0 0 0 0 0 0 0 0 0 0 0 0 0 0 0
4 4 5 7 9 8 9 11 11 9 7 5 3 2 1 0 0 0 0 0 0 0 0 0 0 0 0 0 0 0 0 0 0 0 0 0 0 0 0 0 0 0 0
5 4 3 3 4 5 6 8 10 9 6 4 3 3 2 1 0 0 0 0 0 0 0 0 0 0 0 0 0 0 0 0 0 0 0 0 0 0 0 0 0 0 0
5 4 3 3 2 2 4 7 8 7 5 4 3 3 3 2 1 0 0 0 0 0 0 0 0 0 0 0 0 0 0 0 0 0 0 0 0 0 0 0 0 0 0
6 4 4 4 3 3 5 8 7 6 5 5 4 4 4 4 2 1 0 0 0 1 1 0 0 0 0 0 0 0 0 0 0 0 0 0 0 0 0 0 0 0 0
10 8 6 5 5 7 9 10 8 8 7 6 5 5 6 7 6 4 3 1 1 2 2 1 1 1 1 1 0 0 0 0 0 0 0 0 0 0 0 0 0 0 0
13 12 10 9 10 12 13 12 10 9 8 7 7 8 8 9 9 8 6 4 3 3 3 3 2 2 2 1 0 0 0 0 0 0 0 1 1 0 0 0 0 0 0
15 14 14 15 16 16 16 15 12 10 7 6 8 8 8 8 8 8 6 5 4 3 3 3 3 3 3 2 1 1 1 2 1 0 0 1 1 0 0 0 0 0 0
17 16 16 18 19 19 18 16 15 13 11 8 7 7 7 6 6 6 4 4 3 3 2 2 3 3 3 3 3 2 2 3 2 1 0 1 1 0 0 0 0 0 0
17 17 17 19 21 21 20 18 16 17 17 13 10 9 8 7 6 6 4 3 4 4 4 3 2 3 3 3 3 2 2 2 3 2 1 0 0 0 0 0 0 0 0
16 17 18 18 21 21 20 18 17 17 18 17 14 13 11 9 7 6 5 5 5 5 6 4 2 1 2 1 1 2 2 2 3 3 2 0 0 0 0 0 0 0 0
18 19 19 19 20 21 19 17 16 16 17 17 15 13 11 9 8 7 6 6 6 6 7 5 2 1 1 1 1 2 3 4 4 4 3 2 1 0 0 0 0 0 1
21 20 19 18 19 19 18 16 15 16 16 16 14 12 10 9 9 9 7 6 6 6 7 5 3 3 3 3 2 3 3 4 4 4 4 3 2 1 1 1 1 1 1
22 21 19 17 17 18 17 15 14 15 15 14 13 12 10 10 10 10 8 6 5 6 5 4 4 4 5 5 4 3 2 2 3 4 5 5 4 3 2 2 2 2 2
20 20 20 19 19 19 18 16 15 15 15 14 13 12 11 10 11 11 10 7 6 5 4 4 4 5 6 7 6 5 3 2 3 4 4 5 5 5 4 2 1 2 3
16 17 19 21 21 20 20 19 19 19 17 16 14 12 11 12 12 12 11 9 7 7 6 5 4 5 7 8 8 7 5 4 3 3 3 3 5 7 6 3 1 2 3
14 15 18 21 21 22 23 23 22 21 20 18 17 15 15 16 15 13 12 10 9 10 10 7 5 6 8 9 9 8 6 5 4 3 3 3 5 8 8 5 3 2 1
13 15 18 21 23 24 25 25 24 24 22 21 21 20 22 22 19 15 13 14 13 13 12 10 7 7 8 9 10 8 6 5 5 4 3 4 5 7 7 6 5 4 3
14 15 18 22 23 25 27 26 26 26 25 24 24 24 26 26 22 18 16 17 17 14 12 10 8 7 8 9 9 9 7 6 5 4 3 4 5 6 5 5 6 6 5
Wind_Speed
7 10 11 7 6 6 5 5 6 7 7 7 7 7 7 7 7 6 6 6 7 8 9 9 10 11 12 11 11 11 12 11 12 12 11 11 11 11 11 11 10 10 12
8 11 12 8 7 6 6 6 6 7 7 7 7 7 7 7 6 6 6 7 7 9 9 9 10 11 12 11 11 11 11 10 11 11 10 11 12 11 10 9 7 9 11
9 11 12 8 7 7 6 6 7 7 7 8 7 7 7 7 7 7 8 8 9 9 10 10 11 11 11 11 10 10 10 9 9 9 8 7 11 12 10 9 10 11 10
10 10 10 9 7 7 7 7 7 7 8 8 7 7 7 7 7 8 9 9 10 10 9 10 11 11 11 10 10 10 10 9 9 8 5 7 8 12 10 10 10 10 10
9 9 11 9 8 7 7 7 7 7 7 7 7 7 7 7 7 8 9 9 9 9 9 10 10 10 10 10 10 9 9 9 8 5 6 6 7 11 10 10 9 9 9
10 9 12 9 8 7 7 7 7 7 7 7 7 7 7 7 7 8 8 9 9 9 9 9 9 9 10 10 9 9 8 6 5 5 6 6 7 11 10 9 9 9 8
9 9 12 9 8 7 6 6 6 6 7 7 6 6 6 6 7 7 7 8 8 8 9 8 8 8 9 9 9 8 7 4 2 5 6 6 8 10 10 9 9 8 8
9 9 12 10 8 7 6 5 5 6 6 6 6 6 5 6 6 6 7 7 7 8 8 7 7 7 8 8 8 7 5 1 4 5 5 6 9 8 9 8 8 8 8
9 9 9 10 10 9 6 5 5 5 5 6 5 5 5 6 6 6 6 6 7 7 7 7 7 7 8 8 7 6 4 0 1 4 4 5 8 7 7 8 8 8 8
8 7 7 7 7 7 8 7 5 5 5 5 5 4 5 6 6 6 5 6 6 7 7 7 7 8 7 7 6 4 3 3 2 4 3 7 7 6 6 6 7 7 7
7 6 6 7 6 5 6 7 6 6 5 5 5 4 5 4 5 6 6 7 6 6 6 6 6 7 6 7 5 4 3 1 4 3 3 8 6 5 5 5 6 7 7
9 7 6 6 6 5 4 5 3 4 4 3 2 4 3 2 2 3 8 6 5 5 6 6 5 6 5 4 6 5 2 2 3 3 6 8 6 5 5 5 5 6 6
9 7 6 5 5 5 4 3 2 2 3 3 3 3 2 2 2 2 3 5 5 5 4 6 6 3 2 2 1 2 1 1 2 3 6 8 5 4 5 5 5 6 6
8 8 6 6 5 4 3 3 3 2 2 2 3 2 2 1 1 1 1 2 2 2 2 2 2 2 2 2 2 2 2 1 2 2 6 7 5 4 4 4 5 5 5
7 8 7 6 5 4 3 3 3 2 2 2 2 2 2 2 1 2 1 1 1 2 2 2 1 2 2 2 2 2 2 2 2 2 5 8 5 4 3 3 4 5 5
7 6 6 6 5 5 4 3 3 3 2 2 2 2 2 2 1 1 2 2 1 1 1 1 2 2 1 1 2 2 2 2 2 1 3 7 6 4 3 3 4 5 5
7 6 6 6 5 5 5 4 3 3 3 2 2 2 2 2 2 2 2 2 2 1 2 1 2 2 2 2 2 2 2 2 2 2 2 2 5 6 5 5 5 4 4
6 7 6 5 6 5 4 3 2 2 2 2 2 3 3 2 3 3 2 2 2 2 2 2 2 2 2 2 2 2 2 3 3 2 2 2 2 3 6 6 5 4 4
6 7 7 6 6 5 5 4 3 3 2 2 2 2 2 3 3 3 2 1 3 2 2 2 2 2 2 2 2 2 2 2 3 2 2 1 2 2 2 7 6 4 4
6 6 6 7 6 5 5 4 3 4 3 2 2 2 2 3 3 3 3 2 3 2 2 2 2 2 2 2 2 2 1 2 2 2 2 2 2 2 2 3 4 5 5
5 6 6 6 6 5 4 4 4 4 3 3 3 3 3 3 3 3 2 3 3 2 2 3 3 4 3 2 3 2 2 2 2 2 2 1 2 2 2 2 1 1 4
5 5 6 6 6 6 4 3 3 3 3 3 2 3 3 3 4 4 3 3 3 2 3 3 3 3 3 3 3 3 3 4 3 3 2 2 2 2 3 3 2 1 0
5 5 4 5 5 5 5 4 3 3 3 4 4 4 4 4 4 4 4 4 3 4 3 3 4 4 3 3 2 2 2 2 3 4 3 2 2 2 2 3 3 2 2
5 5 5 5 5 5 5 5 5 4 4 4 3 3 4 4 4 4 4 4 3 3 3 4 4 3 3 3 3 2 2 1 2 3 4 4 3 2 2 1 2 3 2
4 4 4 5 4 4 4 5 5 5 4 3 3 4 4 4 4 4 4 4 4 3 3 3 3 3 3 3 2 3 3 2 3 2 3 4 4 3 2 2 1 1 2
4 4 5 5 5 4 4 4 4 4 4 4 4 4 4 4 4 4 4 4 4 3 3 4 3 4 2 2 2 2 2 2 3 3 2 3 3 3 3 2 2 2 2
Wind_Direction
137 124 126 134 128 120 112 110 109 108 106 108 112 107 102 99 92 89 88 94 103 108 108 104 108 110 111 110 107 105 107 111 112 112 113 118 121 124 128 132 140 125 122
132 125 128 131 127 121 116 113 111 110 108 108 109 106 101 98 91 83 80 87 101 110 112 111 113 112 112 111 109 108 106 108 110 112 116 123 120 119 124 123 114 112 123
129 127 135 128 128 124 119 114 114 113 111 109 107 105 100 95 90 82 80 86 96 105 111 114 116 117 116 115 113 112 112 111 113 119 133 123 117 118 120 117 116 123 123
130 132 129 126 127 124 120 114 112 113 111 107 103 101 99 96 90 84 83 89 95 99 104 115 119 120 120 117 116 115 116 117 121 139 139 115 114 114 117 120 122 125 128
132 132 124 132 126 122 120 114 112 112 110 108 105 100 96 93 88 86 87 90 94 97 98 108 117 121 123 121 118 115 115 118 133 154 112 112 108 115 117 119 125 130 132
141 139 126 135 128 124 122 119 116 112 113 113 110 106 102 99 95 90 88 89 92 96 98 100 109 115 117 118 115 114 113 127 160 120 112 116 117 121 122 127 130 129 127
140 137 130 133 131 127 124 121 119 115 113 113 110 107 104 100 97 94 91 93 94 96 100 102 104 108 111 110 110 111 113 137 129 105 111 113 109 122 127 130 133 133 132
141 138 129 136 136 131 126 123 117 113 113 113 113 109 106 104 99 96 93 94 96 98 100 104 108 111 111 110 108 107 110 167 122 100 102 103 108 127 132 131 132 135 135
144 140 142 147 148 146 135 123 117 113 115 115 114 112 112 114 111 104 97 95 93 98 104 106 109 111 111 109 106 107 113 173 132 106 109 98 111 129 134 133 131 133 136
147 144 146 150 151 156 147 134 126 118 118 121 120 128 139 142 137 126 122 105 101 104 106 105 107 108 113 113 113 118 144 209 128 110 101 102 112 126 134 138 141 142 139
153 154 157 154 154 156 147 140 157 152 146 164 155 158 187 172 150 146 106 109 114 115 115 113 114 120 131 136 133 152 196 181 112 100 95 100 116 123 131 140 148 153 153
163 169 165 161 159 160 150 148 170 169 157 188 157 168 177 150 147 132 118 123 126 131 135 133 143 162 188 152 151 184 184 128 108 113 102 108 120 126 132 133 142 151 156
164 167 166 165 169 167 160 159 165 181 160 172 166 174 173 171 168 160 146 153 160 169 163 153 176 173 146 111 123 146 117 98 103 105 106 114 124 132 137 142 147 150 149
168 170 175 171 171 179 166 166 182 179 165 169 165 197 171 170 177 145 161 151 158 152 149 154 157 135 141 144 148 133 140 144 114 105 108 121 129 135 141 155 164 167 161
174 177 178 179 172 173 176 194 182 184 185 170 172 169 197 175 169 156 151 155 162 156 162 156 148 139 160 154 152 138 137 117 120 115 118 123 124 123 127 149 161 164 164
177 179 179 185 177 179 183 193 193 189 188 192 171 160 194 181 158 185 172 175 167 167 130 152 137 155 157 128 137 138 147 131 125 145 127 132 132 123 116 135 157 158 161
177 177 181 186 180 188 191 199 195 194 188 189 164 159 180 194 169 198 196 194 174 168 160 168 159 162 166 160 153 156 156 152 142 143 140 139 139 137 126 123 125 132 139
178 173 178 184 178 185 192 198 199 201 185 188 173 165 178 192 195 205 203 186 174 187 181 176 189 172 161 172 147 162 154 154 153 158 160 146 130 134 137 128 123 127 133
180 180 178 184 184 186 188 189 190 182 193 196 185 183 178 198 200 207 202 161 200 190 191 205 159 192 177 181 166 170 167 155 154 160 155 154 129 134 134 134 137 136 143
173 179 184 185 184 187 189 189 188 184 189 194 194 193 193 197 202 218 191 181 209 186 188 194 190 207 203 196 185 150 157 150 159 155 180 160 148 158 156 138 158 155 154
165 176 184 188 182 188 192 198 191 189 195 194 198 196 204 206 197 216 214 179 212 185 197 197 201 189 191 191 181 166 159 154 154 162 183 183 162 161 158 155 183 161 154
172 176 179 184 183 192 193 208 206 205 204 195 208 194 208 204 204 207 215 208 203 193 194 194 202 209 192 196 208 193 183 171 180 175 175 177 178 172 166 161 148 140 194
177 180 179 181 183 193 194 200 200 200 202 190 197 193 202 204 203 217 206 217 206 209 186 196 207 215 205 200 224 239 225 201 168 158 172 170 173 184 178 160 165 157 184
180 177 177 181 186 188 197 204 204 207 207 202 203 191 192 197 204 204 203 203 214 214 181 202 198 214 217 204 194 236 277 327 253 167 172 168 172 182 182 198 176 164 178
175 173 171 176 178 184 202 204 212 217 214 203 201 186 196 186 197 198 200 197 202 208 188 203 192 217 214 223 214 201 206 211 242 247 182 173 177 175 180 192 204 193 177
169 169 168 173 177 181 194 205 212 222 222 209 201 191 193 184 189 193 198 194 200 204 194 203 200 195 214 223 233 223 213 220 220 226 216 205 192 172 182 186 204 202 199